User: anonymous   Login
Location: Pedimozza
(42.0500°N, 9.3500°E)
Time: 19:51:04
(UTC+00:00)
Language:

Cosmos 1782 Rocket - Orbit

View from above orbital plane
View from above orbital plane
View from above satellite
View from above satellite

Ground track
Ground track

The orbit data is extracted from the following two-line orbital elements,

1 16987U 86074B   19326.32990906  .00000071  00000-0  58133-5 0  9998
2 16987  82.5177 198.6108 0017351 210.6881 195.0997 14.83054324790100
Epoch (UTC): 22 November 2019 07:55:04
Eccentricity: 0.0017351
inclination: 82.5177°
perigee height: 607 km
apogee height: 632 km
right ascension of ascending node: 198.6108°
argument of perigee: 210.6881°
revolutions per day: 14.83054324
mean anomaly at epoch: 195.0997°
orbit number at epoch: 79010

The dashed part of the orbit path shows where the satellite is in the earth's shadow,  

DLR